Regional Weather Roundup
Issued by NWS Wakefield, VA

Home | Current Version | Previous Version | Graphics & Text | Print | Product List | Glossary On
Versions: 1 2 3 4 5 6 7 8 9 10 11 12 13 14 15 16 17 18 19 20 21 22 23 24 25 26 27 28 29 30 31 32 33 34 35 36 37 38 39 40 41 42 43 44 45 46 47 48 49 50
735
ASUS41 KAKQ 220515
RWRAKQ

REGIONAL WEATHER ROUNDUP
NATIONAL WEATHER SERVICE WAKEFIELD VA
1200 AM EST WED NOV 22 2017

Note: "fair" indicates few or no clouds below 12,000 feet with no
significant weather and/or obstructions to visibility. * = Denotes
station may not report precipitation (e.g., rain,snow,etc.),
thunder or fog.

VAZ042-051-052>054-056-220600-
NORTHERN VIRGINIA

CITY           SKY/WX    TMP DP  RH WIND       PRES   REMARKS
WASH NATIONAL  CLOUDY    53  45  74 SW9       30.02F
DULLES         CLOUDY    53  44  71 S9        29.99F
FORT BELVOIR   CLOUDY    53  44  71 CALM      30.01F
QUANTICO       CLOUDY    53  47  79 SW6       30.02F
FREDERICKSBRG* CLOUDY    49  45  84 SE3       30.01S
STAFFORD*      MOCLDY    49  44  81 CALM      30.05F
WARRENTON      NOT AVBL
CULPEPER*      CLOUDY    46  39  78 CALM      30.01S
MANASSAS*      CLOUDY    52  44  74 S6        30.01F
LEESBURG*      MOCLDY    52  43  71 S7        29.99F
WINCHESTER     CLOUDY    45  39  81 CALM      29.96S
FRONT ROYAL*   PTCLDY    50  41  71 MISG      29.95F
LURAY*         MOCLDY    50  43  76 SW7       29.96F
$$

VAZ048-049-060>072-079>083-220600-
CENTRAL AND SOUTH CENTRAL VIRGINIA

CITY           SKY/WX    TMP DP  RH WIND       PRES   REMARKS
RICHMOND       LGT RAIN  53  49  86 CALM      30.03F
CHESTERFIELD*  NOT AVBL
PETERSBURG*    CLOUDY    52  36  54 CALM      30.04S
HANOVER        RAIN      52  51  97 CALM      30.04F FOG
TAPPAHANNOCK*    N/A    N/A N/A N/A MISG        N/A
QUINTON*       CLOUDY    51  47  86 CALM      30.02F
CHARLOTTSVILLE MOCLDY    49  40  71 S6        29.99F
GORDONSVILLE*  MOCLDY    46  40  82 CALM      30.00F
ORANGE*        CLOUDY    46  39  76 CALM      30.01S
LOUISA*        CLOUDY    51  43  74 CALM      30.05F
BUMPASS*       FAIR      48  43  84 S6        30.02F
FARMVILLE*     MOCLDY    53  49  87 CALM      30.01S
CREWE*         CLOUDY    49  49 100 CALM      30.02F
FORT PICKETT*  CLOUDY    49  49 100 S9        30.03S
CHASE CITY*    CLOUDY    51  51 100 CALM      30.02F
CLARKSVILLE*   CLOUDY    52  48  87 CALM      30.01F
SOUTH HILL*    CLOUDY    50  50  99 CALM      30.07F
LAWRENCEVILLE* MOCLDY    53  49  87 CALM      30.03S
EMPORIA*       CLOUDY    50  50 100 CALM      30.04F
$$

VAZ088>098-220600-
SOUTHEAST VIRGINIA

CITY           SKY/WX    TMP DP  RH WIND       PRES   REMARKS
NORFOLK        CLOUDY    59  54  83 SE6       30.03F
VIRGINIA BEACH CLOUDY    60  55  83 SE6       30.03F
NORFOLK NAVAL  CLOUDY    59  52  77 SE6       30.05F
WEST POINT*    CLOUDY    57  48  72 SE6       30.05F
SALUDA*        CLOUDY    57  53  85 S8        30.03F
NEWPORT NEWS   CLOUDY    59  51  75 S6        30.03F
LANGLEY AFB    MOCLDY    58  52  83 S3        30.03F
FORT EUSTIS    CLOUDY    56  51  81 SE6       30.00F
WILLIAMSBURG*  CLOUDY    57  52  82 CALM      30.04F
HR EXEC AP*    NOT AVBL
FRANKLIN*      CLOUDY    54  49  82 CALM      30.03F
US460-WAKEFLD  CLOUDY    57  50  77 CALM      30.03F
$$

VAZ020-022-025-037-045-220600-
WEST CENTRAL AND SOUTHWEST VIRGINIA

CITY           SKY/WX    TMP DP  RH WIND       PRES   REMARKS
STAUNTON*      PTCLDY    40  37  90 CALM      30.00F
WAYNESBORO*    CLOUDY    47  44  87 CALM      29.99S
HOT SPRINGS VA CLOUDY    48  37  65 SW13G18   29.99F
LYNCHBURG      LGT RAIN  45  43  93 CALM      30.03R
DANVILLE       RAIN      49  47  93 W5        30.04F FOG
SOUTH BOSTON*  CLOUDY    51  49  93 CALM      30.02F
MARTINSVILLE   CLOUDY    46  45  97 CALM      30.06S
ROANOKE        CLOUDY    47  43  86 S3        30.03F
BLACKSBURG     CLOUDY    41  41  97 CALM      30.04F
DUBLIN*        CLOUDY    43  42  97 CALM      30.03S
MARION*        CLOUDY    40  37  90 CALM      30.05S
HILLSVILLE*    CLOUDY    47  46  96 SW5       30.02S
RICHLANDS*     CLOUDY    51  14  23 SW7       30.02F
WISE*          CLOUDY    50  43  76 NW8       30.04R
ABINGDON*      PTCLDY    46  42  86 CALM      30.03S
$$

MDZ021>025-VAZ099-100-220600-
SOUTHERN MARYLAND AND THE DELMARVA PENINSULA

CITY           SKY/WX    TMP DP  RH WIND       PRES   REMARKS
PATUXENT RIVER CLOUDY    56  51  84 SW8       30.02F
BAY BRIDGE APT CLOUDY    54  46  76 S8        30.03F
LEONARDTOWN    CLOUDY    54  46  76 CALM      30.05S
DOVER          MOCLDY    53  53 100 S8        30.02F
GEORGETOWN     CLOUDY    59  50  72 S8        30.04F
EASTON         CLOUDY    57  50  78 SW8       30.07S
CAMBRIDGE      CLOUDY    55  50  82 S6        30.04S
SALISBURY      CLOUDY    58  52  80 S6        30.04F
OCEAN CITY     MOCLDY    57  54  89 SW5       30.06F
WALLOPS ISLAND CLOUDY    58  55  90 S10       30.05F
ACCOMACK*      CLOUDY    60  55  83 S9        30.04F
$$

NCZ012>017-030>032-220600-
NORTH CENTRAL AND EASTERN NORTH CAROLINA

CITY           SKY/WX    TMP DP  RH WIND       PRES   REMARKS
ROANOKE RAPIDS MOCLDY    54  52  94 CALM      30.03F
RALEIGH        CLOUDY    55  49  80 E3        30.02F
ELIZABETH CITY CLOUDY    60  57  89 SE5       30.03F
AHOSKIE*       CLOUDY    53  49  86 CALM      30.03F
EDENTON*       CLOUDY    54  50  89 CALM      30.04F
CURRITUCK*     CLOUDY    62  57  86 CALM      30.04F
KILL DEVIL HLS CLOUDY    60  58  94 CALM      30.03F
MANTEO         CLOUDY    59  57  94 SE3       30.05F
CAPE HATTERAS  CLOUDY    66  63  90 SE9       30.02F
TARBORO*       NOT AVBL
GOLDSBORO      CLOUDY    55  51  86 NE5       29.99F
WASHINGTON     CLOUDY    53  51  94 CALM      30.03F
GREENVILLE     CLOUDY    54  52  94 CALM      30.03F
NEW BERN       CLOUDY    55  54  96 CALM      30.02F
WILMINGTON     RAIN      61  60  97 SE5       29.99F FOG
$$

VAZ048-220600-
ELSEWHERE

CITY           SKY/WX    TMP DP  RH WIND       PRES   REMARKS
HARRISBURG PA  CLOUDY    38  34  85 CALM      29.96F
BALTIMORE      MOCLDY    54  45  71 S3        30.00F
ANNAPOLIS      CLOUDY    56  48  74 S6        30.01F
ANDREWS AFB    CLOUDY    55  44  67 S13       30.00F
PHILADELPHIA   CLOUDY    52  42  69 S6        30.02F
GREENSBORO     LGT RAIN  49  48  97 E3        30.02F
ROCKY MOUNT    CLOUDY    53  52  96 CALM      30.02F
$$

VAZ100-220600-
MARINE

STATION/POSITION TIME  TEMP    WIND        PRES    WAVE   SWELL
                       AIR SEA DIR/SP/G            HT/PER HT/PER
                 (UTC) (F)     (DEG/KT/KT) (MB)    (FT/S) (FT/S)
BRANDYWINE LGT   0442   58     210/ 13/ 13 1017.5F
CAPE MAY NJ      0448   58 49  200/ 10/ 15 1016.9F
LEWES DE         0442   59 51  190/  6/  8 1017.2F
15NM E FENWICK I 0450   60 57  160/ 14/ 16 1018.0F   3/ 4
OCEAN-CITY-INLET 0442   57 53  220/  7/  8 1018.1F
WACHAPREAGUE VA  0448   57 51  220/  2/  4 1017.5F
THOMAS POINT MD  0500   54 53  160/ 10/ 11   N/A
GOOSES REEF MD   0450   55     210/  4/  6 1015.9R
COVE POINT MD    0448   57     220/  9/ 12 1017.4F
SOLOMONS ISLAND  0448   54 53   CALM  /  1 1016.4F
BISHOPS HEAD MD  0448   53 48  160/ 10/ 11 1017.1F
PINEY POINT MD   0448          260/  2/  2   N/A
POTOMAC MD       0450   57     170/ 14/ 16 1016.0F
CAMBRIDGE MD     0442   56 50              1017.6F
LEWISETTA VA     0448   57 50  190/ 10/ 11 1016.4F
RAPPAHANNOCK LGT 0448          140/ 14/ 14 1017.6F
STINGRAY PT      0450   55     200/ 10/ 12 1017.4F
YORK RVR RNG VA  0448   56     190/  8/  9 1017.5F
YORKTOWN VA      0448   59 54  170/  9/ 11 1016.4F
JAMESTOWN VA     0450           90/  4/  6   N/A
DOMINION TERM VA 0448   57     110/  1/  2 1017.2F
KIPTOPEKE VA     0436      54  160/ 11/ 12   N/A
CAPE HENRY VA    0448   61     150/  9/ 11   N/A
WILLOUBY STN VA  0436   58     130/  9/  9 1017.0F
S CRANEY ISL VA  0448   58     170/  7/  8 1017.0F
CAPE HENRY BUOY  0500      56                N/A     2/ 4
1ST LANDING BUOY 0450   58     160/  8/ 10 1017.2F
CAPE CHARLES BUO 0451      56                N/A     2/ 4
64NM E OF VA BCH 0450   64 65   90/  4/  6 1018.6F   2/ 9   2/ 9
DUCK PIER NC     0448   63 60  140/ 13/ 16 1016.5F
44100 DUCK FRF   0445      61                N/A     1/13
44056 DUCK FRF   0500      61                N/A     2/13
OREGON INLET NC  0436   62 54  260/  3/  4 1017.3F
HATTERAS NC      0448   66 59  120/  6/  8 1016.2F
DIAMOND SHLS NC  0500   73 75  140/ 19/ 25 1016.4
CAPE LOOKOUT NC  0500           90/  6/  6 1015.8F
$$




USA.gov is the U.S. government's official web portal to all federal, state and local government web resources and services.